Location: Bacharowice
(49.9333°N, 19.5833°E)
Time: 05:45:00
(UTC+00:00)

Cosmos 1908 Rocket - Pass Details

Date: 01 October 2021
Orbit: 605 x 633 km, 82.5° (Epoch: 17 October)

Event Time Altitude Azimuth Distance (km) Brightness Sun altitude
Rises 18:24:55 0° 239° (WSW) 2,917 7.6 -20.6°
Reaches altitude 10° 18:28:08 10° 264° (W) 2,011 7.1 -21.1°
Maximum altitude 18:30:35 14° 298° (WNW) 1,736 6.9 -21.5°
Drops below altitude 10° 18:33:02 10° 331° (NNW) 2,012 6.9 -21.9°
Sets 18:36:16 0° 356° (N) 2,918 7.4 -22.3°
